レモン彗星

C/2017 S7 ( Lemmon )

English version
Home page
Updated on April 13, 2018

---------------------------------------------------------------------

・ プロフィール

発見日 2017年9月26日
発見光度 19.6等
発見者 R. G. Matheny (Mount Lemmon survey)

・ 写真集

・ 軌道要素

Epoch 2017 June 16.0 TT = JDT 2457920.5
T 2017 May 28.09449 TT                                  MPCW
q   7.6145681            (2000.0)            P               Q
z  -0.0003162      Peri.  187.76051     +0.19974827     +0.53585011
 +/-0.0000021      Node   262.78682     +0.93755093     +0.13880393
e   1.0024080      Incl.  124.21955     +0.28477864     -0.83282539
From 127 observations 2016 Dec. 18-2018 Jan. 20, mean residual 0".4.

・ 光度変化

        m1 = 6.2 + 5 logΔ + 10.0 log r

---------------------------------------------------------------------

軌道要素はM.P.E.C. 2018-D91に掲載されたものです。
光度グラフはComet for Windowsで作成したものです。

---------------------------------------------------------------------

Copyright(C) Seiichi Yoshida (comet@aerith.net). All rights reserved.